Overview Statistics Trail Chart Weather Telemetry Raw packets
 

This is the latest recevied weather packets stored in our database for station/object K7OWW-2. If no packets are shown the sender has not sent any weather packets the latest 10 day(s).

<< 46 47 48 49 50 51 52 >>
Time Temp. Humidity Pressure Rain* Wind** Luminosity Snow
1787894941 11.67° C 72% 1014.6 hPa 0 mm - - -
1787894341 12.22° C 71% 1014.6 hPa 0 mm - - -
1787893741 12.78° C 70% 1014.6 hPa 0 mm - - -
1787893141 13.33° C 68% 1014.6 hPa 0 mm - - -
1787892541 13.33° C 68% 1014.5 hPa 0 mm - - -
1787891941 13.89° C 67% 1014.5 hPa 0 mm - - -
1787891341 14.44° C 65% 1014.4 hPa 0 mm - - -
1787890741 14.44° C 64% 1014.3 hPa 0 mm - - -
1787890141 15° C 63% 1014.2 hPa 0 mm - - -
1787889541 15.56° C 61% 1014.1 hPa 0 mm - - -
1787888941 15.56° C 60% 1013.8 hPa 0 mm - - -
1787888341 16.11° C 59% 1013.7 hPa 0 mm - - -
1787887741 16.67° C 58% 1013.5 hPa 0 mm - - -
1787887141 16.67° C 56% 1013.3 hPa 0 mm - - -
1787886844 17.22° C 55% 1013.1 hPa 0 mm - - -
1787886541 17.22° C 55% 1013.2 hPa 0 mm - - -
1787885945 18.33° C 56% 1013 hPa 0 mm - - -
1787885341 18.89° C 49% 1013 hPa 0 mm - - -
1787884741 19.44° C 48% 1012.8 hPa 0 mm - - -
1787884141 20° C 46% 1012.7 hPa 0 mm - - -
1787883541 20° C 44% 1012.8 hPa 0 mm - - -
1787883244 20.56° C 43% 1012.8 hPa 0 mm - - -
1787882941 20.56° C 42% 1012.9 hPa 0 mm - - -
1787882341 21.11° C 41% 1012.9 hPa 0 mm - - -
1787881741 21.67° C 40% 1012.8 hPa 0 mm - - -

* Rain latest hour (hover to see other rain measurements)
** Current wind speed in m/s (hover to see current wind gust speed)